Location: Spor
(46.2167°N, 11.0500°E)
Time: 19:22:35
(UTC+00:00)

USA 229 DEB - Visible Passes

Search period start: 25 September 2020 00:00
Search period end: 05 October 2020 00:00
Orbit: 971 x 1241 km, 63.4° (Epoch: 22 September)

Date Brightness Start Highest point End Pass type
(mag) Time Alt. Az. Time Alt. Az. Time Alt. Az.
25 Sep 5.7 19:07:42 10° NW 19:12:33 19° N 19:17:37 10° NE visible
25 Sep 5.0 20:59:26 10° NNW 21:05:22 33° NNE 21:05:22 33° NNE visible
25 Sep 5.6 22:50:16 10° NW 22:52:46 24° NW 22:52:46 24° NW visible
26 Sep 5.7 18:22:12 10° NW 18:26:58 19° N 18:31:57 10° NE visible
26 Sep 5.2 20:14:36 10° NNW 20:20:30 27° NNE 20:21:42 26° NE visible
26 Sep 5.2 22:05:27 10° NW 22:09:07 33° NNW 22:09:07 33° NNW visible
27 Sep 5.6 17:36:29 10° WNW 17:41:24 20° N 17:46:32 10° NE visible
27 Sep 5.4 19:29:38 10° NNW 19:35:03 23° NNE 19:38:04 18° NE visible
27 Sep 4.9 21:20:41 10° NW 21:25:29 40° N 21:25:29 40° N visible
27 Sep 6.0 23:11:48 10° NW 23:12:54 15° NW 23:12:54 15° NW visible
28 Sep 5.5 18:44:30 10° NW 18:49:31 20° N 18:54:28 11° NE visible
28 Sep 4.8 20:35:56 10° NNW 20:41:53 38° NNE 20:41:53 38° NNE visible
28 Sep 5.6 22:26:49 10° NW 22:29:19 24° NW 22:29:19 24° NW visible
29 Sep 5.6 17:59:09 10° NW 18:03:57 19° N 18:08:56 10° NE visible
29 Sep 4.9 19:51:08 10° NNW 19:57:21 30° NNE 19:58:19 30° NE visible
29 Sep 5.1 21:41:57 10° NW 21:45:44 35° NW 21:45:44 35° NW visible
30 Sep 5.2 19:06:15 10° NNW 19:11:57 25° NNE 19:14:46 20° NE visible
30 Sep 4.7 20:57:10 10° NW 21:02:11 45° NNW 21:02:11 45° NNW visible
30 Sep 6.1 22:48:30 10° NW 22:49:37 15° NW 22:49:37 15° NW visible
01 Oct 5.4 18:21:14 10° NW 18:26:29 22° NNE 18:31:15 12° ENE visible
01 Oct 4.5 20:12:25 10° NNW 20:18:40 45° NNE 20:18:40 45° NNE visible
01 Oct 5.6 22:03:24 10° NW 22:06:06 24° NW 22:06:06 24° NW visible
02 Oct 5.5 17:36:01 10° NW 17:40:55 20° N 17:46:01 10° NE visible
02 Oct 4.7 19:27:39 10° NNW 19:34:08 35° NNE 19:35:11 34° NE visible
02 Oct 5.0 21:18:29 10° NW 21:22:36 38° NW 21:22:36 38° NW visible
03 Oct 5.0 18:42:49 10° NNW 18:48:49 28° NNE 18:51:43 22° ENE visible
03 Oct 4.4 20:33:39 10° NW 20:39:09 54° NNW 20:39:09 54° NNW visible
03 Oct 6.1 22:25:19 10° NW 22:26:34 15° WNW 22:26:34 15° WNW visible
04 Oct 5.2 17:57:54 10° NNW 18:03:24 23° NNE 18:08:17 13° ENE visible
04 Oct 4.1 19:48:54 10° NW 19:55:43 55° NE 19:55:43 55° NE visible
04 Oct 5.5 21:40:04 10° NW 21:43:09 26° WNW 21:43:09 26° WNW visible
